Home   Weather   Taichung   Past weeks
Flag for Taiwan

Past Weather in Taichung, Taiwan — Yesterday and Last 2 Weeks

Now
61 °F

Passing clouds.


Feels Like: 61 °F
Forecast: 76 / 54 °F
Wind: 10 mph from East

Location: Chiang Kai Shek

Current Time: Jan 23, 2019 at 9:11:31 am

Latest Report: Jan 23, 2019 at 8:30 am


Visibility: N/A

Pressure: 30.15 "Hg

Humidity: 63%

Dew Point: 48 °F

Location of TaichungLocation

Past Weather in Taichung — Graph

°F

Taichung Temperature Yesterday

Maximum temperature yesterday: 59 °F (at 2:00 am)
Minimum temperature yesterday: 55 °F (at 8:30 pm)
Average temperature yesterday: 57 °F

High & Low Weather Summary for the Past Weeks

 TemperatureHumidityPressure
High75 °F (Jan 10, 9:30 am)100% (Jan 8, 7:30 am)30.27 "Hg (Jan 8, 7:30 am)
Low50 °F (Jan 23, 2:00 am)50% (Jan 18, 2:00 pm)30.01 "Hg (Jan 11, 2:30 pm)
Average64 °F86%30.14 "Hg
* Reported Jan 8 7:00 am — Jan 23 7:30 am, Taichung. Weather by CustomWeather, © 2019

Note: Actual official high and low records may vary slightly from our data, if they occured in-between our weather recording intervals... More about our weather records

Advertising

Taichung Weather History for the Previous 24 Hours

Scroll right to see more
 ConditionsComfort  
Time TempWeatherWind HumidityBarometerVisibility
7:30 am
Wed, Jan 23
55 °FPassing clouds.9 mph77%30.15 "HgN/A
7:00 am54 °FPassing clouds.9 mph77%30.15 "HgN/A
6:30 am52 °FPassing clouds.7 mph77%30.15 "HgN/A
6:00 am54 °FPassing clouds.9 mph72%30.12 "HgN/A
5:30 am54 °FPassing clouds.9 mph72%30.12 "HgN/A
5:00 am52 °FPassing clouds.8 mph77%30.12 "HgN/A
4:30 am54 °FPassing clouds.12 mph77%30.12 "HgN/A
4:00 am52 °FPassing clouds.8 mph77%30.12 "HgN/A
3:30 am50 °FPassing clouds.8 mph76%30.12 "HgN/A
3:00 am50 °FPassing clouds.9 mph76%30.15 "HgN/A
2:30 am50 °FPassing clouds.9 mph76%30.15 "HgN/A
2:00 am50 °FPassing clouds.8 mph76%30.15 "HgN/A
1:30 am54 °FPassing clouds.9 mph72%30.15 "HgN/A
1:00 am55 °FPassing clouds.12 mph67%30.15 "HgN/A
12:30 am55 °FPassing clouds.12 mph67%30.18 "HgN/A
12:00 am55 °FPassing clouds.12 mph67%30.18 "HgN/A
11:30 pm
Tue, Jan 22
55 °FPassing clouds.12 mph67%30.18 "HgN/A
11:00 pm55 °FPassing clouds.12 mph67%30.18 "HgN/A
10:30 pm55 °FPassing clouds.12 mph67%30.18 "HgN/A
10:00 pm55 °FPassing clouds.13 mph67%30.18 "HgN/A
9:30 pm55 °FPassing clouds.14 mph72%30.18 "HgN/A
9:00 pm55 °FPassing clouds.12 mph72%30.18 "HgN/A
8:30 pm55 °FPassing clouds.12 mph72%30.18 "HgN/A
8:00 pm57 °FPassing clouds.13 mph67%30.18 "HgN/A
7:30 pm57 °FPassing clouds.15 mph67%30.18 "HgN/A
7:00 pm57 °FPassing clouds.14 mph67%30.18 "HgN/A
6:30 pm59 °FPassing clouds.16 mph59%30.18 "HgN/A
6:00 pm57 °FPassing clouds.14 mph63%30.18 "HgN/A
5:30 pm57 °FPartly sunny.14 mph63%30.18 "HgN/A
5:00 pm59 °FPartly sunny.15 mph63%30.18 "HgN/A
4:30 pm59 °FPartly sunny.16 mph63%30.18 "HgN/A
3:30 pm59 °FPartly sunny.15 mph63%30.15 "HgN/A
3:00 pm59 °FPartly sunny.14 mph63%30.15 "HgN/A
2:30 pm59 °FPartly sunny.14 mph63%30.18 "HgN/A
2:00 pm59 °FPartly sunny.14 mph68%30.18 "HgN/A
1:30 pm57 °FPartly sunny.14 mph72%30.18 "HgN/A
1:00 pm57 °FPartly sunny.15 mph67%30.18 "HgN/A
12:30 pm57 °FPartly sunny.15 mph67%30.21 "HgN/A
12:00 pm57 °FPartly sunny.15 mph67%30.21 "HgN/A
11:30 am57 °FPartly sunny.16 mph72%30.24 "HgN/A
11:00 am57 °FPartly sunny.16 mph72%30.24 "HgN/A
10:30 am57 °FPartly sunny.17 mph72%30.24 "HgN/A
10:00 am57 °FPartly sunny.16 mph72%30.24 "HgN/A
9:30 am57 °FPartly sunny.15 mph72%30.21 "HgN/A
9:00 am57 °FPartly sunny.15 mph72%30.21 "HgN/A
Weather by CustomWeather, © 2019

See weather overview